This is the latest recevied weather packets stored in our database for station/object KD8OZS. If no packets are shown the sender has not sent any weather packets the latest 10 day(s).
| Time | Temp. | Humidity | Pressure | Rain* | Wind** | Luminosity | Snow |
|---|---|---|---|---|---|---|---|
| 1777539833 | 5.56° C | 91% | 1004.1 hPa | 0 mm | - | 0 W/m² | - |
| 1777539530 | 6.11° C | 91% | 1004.2 hPa | 0 mm | - | 0 W/m² | - |
| 1777538924 | 6.11° C | 92% | 1004.3 hPa | 0 mm | - | 0 W/m² | - |
| 1777538619 | 6.11° C | 93% | 1004.1 hPa | 0 mm | - | 0 W/m² | - |
| 1777537403 | 6.67° C | 93% | 1004 hPa | 0 mm | - | 0 W/m² | - |
| 1777537099 | 6.67° C | 93% | 1004 hPa | 0 mm | - | 0 W/m² | - |
| 1777536189 | 7.22° C | 92% | 1003.6 hPa | 0 mm | - | 0 W/m² | - |
| 1777535885 | 7.22° C | 92% | 1003.5 hPa | 0 mm | - | 0 W/m² | - |
| 1777534672 | 8.33° C | 92% | 1003.2 hPa | 0 mm | - | 0 W/m² | - |
| 1777534369 | 8.33° C | 92% | 1003.1 hPa | 0 mm | - | 0 W/m² | - |
| 1777534067 | 8.33° C | 92% | 1003.1 hPa | 0 mm | - | 0 W/m² | - |
| 1777533764 | 8.33° C | 92% | 1003.3 hPa | 0 mm | - | 0 W/m² | - |
| 1777533460 | 8.33° C | 93% | 1003 hPa | 0 mm | - | 0 W/m² | - |
| 1777533156 | 8.33° C | 93% | 1002.9 hPa | 0 mm | - | 0 W/m² | - |
| 1777532854 | 8.33° C | 93% | 1003.2 hPa | 0 mm | - | 0 W/m² | - |
| 1777532550 | 8.33° C | 94% | 1003 hPa | 0 mm | - | 0 W/m² | - |
| 1777532247 | 7.78° C | 94% | 1003.2 hPa | 0 mm | - | 0 W/m² | - |
| 1777531943 | 7.78° C | 95% | 1003.2 hPa | 0 mm | - | 0 W/m² | - |
| 1777531639 | 7.78° C | 95% | 1003.2 hPa | 0 mm | - | 0 W/m² | - |
| 1777531337 | 7.78° C | 95% | 1003.1 hPa | 0 mm | - | 0 W/m² | - |
| 1777531034 | 7.78° C | 96% | 1003.2 hPa | 0 mm | - | 0 W/m² | - |
| 1777530731 | 7.78° C | 96% | 1003.3 hPa | 0 mm | - | 0 W/m² | - |
| 1777530429 | 7.22° C | 96% | 1003.3 hPa | 0 mm | - | 0 W/m² | - |
| 1777530125 | 7.22° C | 96% | 1003.4 hPa | 0 mm | - | 0 W/m² | - |
| 1777529823 | 7.22° C | 96% | 1003.5 hPa | 0 mm | - | 0 W/m² | - |
* Rain latest hour (hover to see other rain measurements)
** Current wind speed in m/s (hover to see current wind gust speed)